Location: *
(28.2408°N, 53.4600°E)
Time: 04:56:04
(UTC+00:00)

GPS 2-17 Rocket1 - Pass Details

Date: 22 September 2019
Orbit: 571 x 659 km, 20.3° (Epoch: 20 October)

Event Time Altitude Azimuth Distance (km) Brightness Sun altitude
Rises 15:37:06 0° 255° (WSW) 2,809 7.6 -17.0°
Reaches altitude 10° 15:39:42 10° 243° (WSW) 1,893 6.3 -17.6°
Maximum altitude 15:43:27 27° 184° (S) 1,109 4.3 -18.4°
Enters shadow 15:44:36 24° 158° (SSE) 1,202 4.2 -18.6°
